Airfield :
LOGIN :

Register | Disclaimer

   EN    FR    IT 

 










Legend :    VFR   Marginal VFR   IFR   Intensive IFR   Very Intensive IFR
Visi :
Ceiling :
>= 8 km
>= 3000ft
5 to 8 km
1000 to 3000 ft
1500m to 5 km
500 to 1000 ft
800 to 1500m
200 to 500 ft
< 800m
< 200 ft
Symbols :   Thunderstorms  Fog  Heavy snow  Heavy precipitations  Wind > 20 kt
SIGMETs :     Misc.  Thunderstorms  Icing  Turbulence  Mountain Waves  Volcanic Ashes







- Airport Elevation : 19 ft
- IATA code : LCY
- Download approach charts


EGLC - London City

CURRENT METAR :
  • 201120Z AUTO 09007KT 060V130 9999 NCD 16/10 Q1023

EXPIRED METARs :
  • 201050Z AUTO 09007KT 9999 NCD 15/10 Q1023
  • 201020Z AUTO 09009KT 9999 NCD 14/09 Q1023
  • 200950Z AUTO 10010KT 9999 NCD 14/09 Q1023
  • 200920Z AUTO 09009KT 9999 NCD 14/09 Q1024
  • 200850Z AUTO 09006KT 060V120 9999 NCD 13/09 Q1024

TAF TAF EGLC
Valid from the 20 at 12:00 until the 20 at 21:00 UTC


201104Z 2012/2021 09007KT 9999 FEW030
ATIS : +44 20 7646 0224
No reported NOTAMs for that airfield.



MET'MAP, your aeronautical weather chart ! - Copyright ORBIFLY December 2007 - Disclaimer

ORBIFLY MET'MAP TEAM :

Programming & Development : Alexandra Zaïnal
Concept & Development : Baudouin d'Aumeries
Co-Development & Prog : Marc-Olivier Méhu
Technical & hardware support : Manuel Goepfert

Contact : metmap@orbifly.com




SOURCES & CREDITS :

   NOAA